Regional Weather Roundup
Issued by NWS

Home | Current Version | Previous Version | Graphics & Text | Print | Product List | Glossary On
Versions: 1 2 3 4 5 6 7 8 9 10 11 12 13 14 15 16 17 18 19 20 21 22 23 24 25 26 27 28 29 30 31 32 33 34 35 36 37 38 39 40 41 42 43 44 45 46 47 48 49 50
000
ASUS43 KIND 012309
RWRIN

WEATHER ROUNDUP FOR INDIANA
NATIONAL WEATHER SERVICE INDIANAPOLIS IN
700 PM EDT WED JUL 01 2015

NOTE: "FAIR" INDICATES FEW OR NO CLOUDS BELOW 12,000 FEET WITH NO
SIGNIFICANT WEATHER AND/OR OBSTRUCTIONS TO VISIBILITY.

* - STATION DOES NOT REPORT WEATHER SUCH AS PRECIPITATION OR FOG.

+ - STATION NOT QUALITY CONTROLLED BY THE NATIONAL WEATHER SERVICE.
    USE DATA WITH CAUTION...ESPECIALLY DEWPOINT AND RELATIVE
    HUMIDITY OBSERVATIONS.

INZ001>003-010>013-019-020-020000-
NORTHWEST INDIANA

CITY           SKY/WX    TMP DP  RH WIND       PRES   REMARKS
GARY /AIRPORT/ PTSUNNY   63  54  72 NE9       29.98R
KNOX *+        MOSUNNY   64  50  59 N9        29.95R
LA PORTE +     MOSUNNY   62  52  69 N9        29.98R
MICHIGAN CITY+ PTSUNNY   59  50  72 N8        29.98R
MONTICELLO +   CLOUDY    70  61  72 N10       29.92R
RENSSELAER +   MOSUNNY   68  61  77 N9        29.94S
VALPARAISO     MOSUNNY   63  50  62 N8        29.97R

$$

LMZ046-743>745-020000-
SOUTHERN LAKE MICHIGAN

STATION/POSITION TIME  TEMP    WIND        PRES    WAVE
                       AIR SEA DIR/SP/G            HT
                 (UTC) (F)     (DEG/KT/KT) (MB)    (FT)
BURNS HARBOR     2300   60      60/  9/ 11 1015.6S
MICHIGAN CITY    2300   58      20/ 12/ 14   N/A
5NW MICH CITY    2300   59 65   50/ 10/ 14   N/A     3

$$

INZ004-005-014>016-021>024-020000-
NORTH CENTRAL INDIANA

CITY           SKY/WX    TMP DP  RH WIND       PRES   REMARKS
ELKHART        MOSUNNY   64  50  59 NW8       29.95S
GOSHEN         SUNNY     66  52  60 NW8       29.93R
LOGANSPORT +   MOSUNNY   70  55  60 N9        29.93R
PERU/GRISSOM   PTSUNNY   72  61  67 N8        29.91S
ROCHESTER +    MOSUNNY   70  59  68 NW9       29.93S
SOUTH BEND     MOSUNNY   63  51  65 NW10      29.96R
WARSAW +         N/A     68  54  60 NW7       29.93S

$$

INZ006>009-017-018-025>027-020000-
NORTHEAST INDIANA

CITY           SKY/WX    TMP DP  RH WIND       PRES   REMARKS
ANGOLA *+      SUNNY     72  64  78 W6        29.92R
AUBURN +       MOSUNNY   72  54  53 W6        29.92S
FORT WAYNE     PTSUNNY   73  57  57 NW8       29.91F
HUNTINGTON +   MOSUNNY   72  58  60 N7        29.91S

$$

INZ028-029-035-036-043>045-051>053-020000-
WEST CENTRAL INDIANA

CITY           SKY/WX    TMP DP  RH WIND       PRES   REMARKS
CRAWFORDSVL +  PTSUNNY   71  60  69 CALM      29.90F
GREENCASTLE +  CLOUDY    73  61  64 NE5       29.91R
LAFAYETTE      PTSUNNY   72  62  71 N9        29.90S
TERRE HAUTE    CLOUDY    71  69  93 E9        29.88S

$$

INZ030>032-037>040-046>048-054>057-064-065-020000-
CENTRAL INDIANA

CITY           SKY/WX    TMP DP  RH WIND       PRES   REMARKS
CP ATTERBURY + MOSUNNY   75  64  69 CALM      29.90S
COLUMBUS       CLOUDY    75  64  69 E3        29.90R
FRANKFORT +    PTSUNNY   73  64  73 N6        29.93S
GREENWOOD *+   CLOUDY    75  61  60 E5        29.90S
INDIANAPOLIS   CLOUDY    75  61  61 NW5       29.88S
-EAGLE CREEK   CLOUDY    74  62  66 N5        29.89F
KOKOMO *+      PTSUNNY   73  61  64 N7        29.91R
MARION +       PTSUNNY   73  59  62 NW5       29.92R
MT COMFORT *+  PTSUNNY   73  57  56 CALM      29.91S
SHELBYVILLE    PTSUNNY   77  65  66 CALM      29.89S
ZIONSVILLE +   CLOUDY    74  62  64 CALM      29.91S

$$

INZ033-034-041-042-049-050-058-059-020000-
EAST CENTRAL INDIANA

CITY           SKY/WX    TMP DP  RH WIND       PRES   REMARKS
MUNCIE         PTSUNNY   74  61  63 N5        29.91S

$$

INZ060-061-067>069-081>083-085>088-020000-
SOUTHWEST INDIANA

CITY           SKY/WX    TMP DP  RH WIND       PRES   REMARKS
EVANSVILLE     PTSUNNY   81  68  64 SW8       29.88R
HUNTINGBURG *+ PTSUNNY   79  66  65 CALM      29.88S
WASHINGTON +   PTSUNNY   76  70  79 CALM      29.87S

$$

INZ062-063-066-070>080-084-089>092-020000-
SOUTH CENTRAL AND SOUTHEAST INDIANA

CITY           SKY/WX    TMP DP  RH WIND       PRES   REMARKS
BLOOMINGTON    CLOUDY    74  68  81 S3        29.90R
MADISON *+     MOSUNNY   77  64  65 SW5       29.91S
NORTH VERNON + MOSUNNY   79  63  57 CALM      29.90S
SEYMOUR +      PTSUNNY   75  68  78 S6        29.89S

$$




USA.gov is the U.S. government's official web portal to all federal, state and local government web resources and services.